Weather History for KFEP - March, 2013

Change the Weather History Date:

Monday, March 18, 2013

  Actual Average Record
Temperature  
Mean Temperature 26 °F -  
Max Temperature 33 °F 41 °F 79 °F (2012)
Min Temperature 19 °F 25 °F 10 °F (1993)
Degree Days  
Heating Degree Days 39    
Moisture  
Dew Point 25 °F    
Average Humidity 85    
Maximum Humidity 92    
Minimum Humidity 72    
Precipitation  
Precipitation 0.06 in - - ()
Sea Level Pressure  
Sea Level Pressure 29.76 in    
Wind  
Wind Speed 10 mph (SE)    
Max Wind Speed 25 mph    
Max Gust Speed 36 mph    
Visibility 6 miles    
Events Snow    
Averages and records for this station are not official NWS values.
T = Trace of Precipitation, MM = Missing Value Source: NWS Daily Summary

Daily Weather History Graph

Daily Weather History Graph

Search for Another Location

Airport or City:

Trip Planner

Search our weather history database for the weather conditions in past years. The results will help you decide how hot, cold, wet, or windy it might be!

Date:

Astronomy

Mar. 18, 2013 Rise Set
Actual Time 7:04 AM CDT 7:08 PM CDT
Civil Twilight 6:36 AM CDT 7:36 PM CDT
Nautical Twilight 6:04 AM CDT 8:09 PM CDT
Astronomical Twilight 5:30 AM CDT 8:42 PM CDT
Moon 10:57 AM CDT (3/18) 1:14 AM CDT (3/18)
Length of Visible Light 12h 59m
Length of Day
12h 03m
Waxing Crescent, 41% of the Moon is Illuminated
Mar 18
Waxing Crescent
Mar 19
First Quarter
Mar 27
Full
Apr 2
Last Quarter
Apr 10
New

Hourly Weather History & Observations

Time (CDT) Temp. Windchill Dew Point Humidity Pressure Visibility Wind Dir Wind Speed Gust Speed Precip Events Conditions
12:15 AM 28.6 °F 21.5 °F 24.8 °F 86% 29.97 in 10.0 mi ENE 6.9 mph - N/A   Clear
12:35 AM 27.5 °F 20.2 °F 23.9 °F 86% 29.96 in 10.0 mi ENE 6.9 mph - N/A   Clear
12:55 AM 27.0 °F 19.5 °F 23.5 °F 87% 29.94 in 10.0 mi ENE 6.9 mph - N/A   Clear
1:15 AM 26.6 °F 18.2 °F 23.4 °F 88% 29.93 in 10.0 mi ENE 8.1 mph - N/A   Clear
1:35 AM 26.2 °F 20.7 °F 23.0 °F 88% 29.93 in 10.0 mi NE 4.6 mph - N/A   Clear
1:55 AM 26.2 °F 19.6 °F 23.0 °F 88% 29.92 in 10.0 mi NE 5.8 mph - N/A   Scattered Clouds
2:15 AM 27.7 °F 23.8 °F 24.8 °F 89% 29.91 in 10.0 mi ENE 3.5 mph - N/A   Overcast
2:35 AM 31.1 °F 23.1 °F 27.5 °F 87% 29.89 in 10.0 mi East 9.2 mph - N/A   Overcast
2:55 AM 31.5 °F 22.9 °F 26.6 °F 82% 29.89 in 10.0 mi East 10.4 mph - N/A   Overcast
3:15 AM 31.5 °F 21.8 °F 26.6 °F 82% 29.87 in 10.0 mi East 12.7 mph - N/A   Overcast
3:35 AM 31.5 °F 22.9 °F 26.6 °F 82% 29.87 in 10.0 mi East 10.4 mph - N/A   Overcast
3:55 AM 31.5 °F 22.9 °F 26.6 °F 82% 29.85 in 10.0 mi East 10.4 mph - N/A   Overcast
4:15 AM 31.5 °F 22.9 °F 27.1 °F 84% 29.85 in 10.0 mi East 10.4 mph - N/A   Overcast
4:35 AM 31.5 °F 22.3 °F 27.1 °F 84% 29.83 in 10.0 mi East 11.5 mph - N/A   Overcast
4:55 AM 31.5 °F 22.3 °F 27.3 °F 85% 29.82 in 10.0 mi East 11.5 mph - N/A   Overcast
5:15 AM 31.5 °F 23.5 °F 27.3 °F 85% 29.81 in 10.0 mi ENE 9.2 mph - N/A   Overcast
5:35 AM 31.5 °F 22.9 °F 27.3 °F 85% 29.80 in 10.0 mi ENE 10.4 mph - N/A   Overcast
5:55 AM 31.5 °F 24.2 °F 27.5 °F 85% 29.80 in 5.0 mi ENE 8.1 mph - N/A Snow Light Snow
6:15 AM 31.5 °F 24.9 °F 28.0 °F 87% 29.80 in 3.0 mi ENE 6.9 mph - N/A Snow Light Snow
6:35 AM 30.2 °F 21.9 °F 27.1 °F 88% 29.80 in 2.5 mi ENE 9.2 mph - N/A Snow Light Snow
6:55 AM 29.8 °F 21.5 °F 27.1 °F 90% 29.78 in 2.0 mi ENE 9.2 mph - N/A Snow Light Snow
7:15 AM 29.1 °F 21.3 °F 26.6 °F 90% 29.77 in 2.5 mi ENE 8.1 mph - N/A Snow Light Snow
7:35 AM 29.1 °F 21.3 °F 26.6 °F 90% 29.76 in 1.2 mi NE 8.1 mph - N/A Snow Light Snow
7:55 AM 28.9 °F 21.1 °F 26.6 °F 91% 29.75 in 1.0 mi NE 8.1 mph - N/A Snow Light Snow
8:15 AM 29.3 °F 22.3 °F 27.1 °F 92% 29.75 in 1.5 mi ENE 6.9 mph - N/A Snow Light Snow
8:35 AM 29.8 °F 22.2 °F 27.7 °F 92% 29.74 in 2.0 mi ENE 8.1 mph - N/A Snow Light Snow
8:55 AM 30.4 °F 23.6 °F 28.2 °F 92% 29.74 in 1.0 mi ENE 6.9 mph - N/A Snow Light Snow
9:15 AM 31.5 °F 28.1 °F 29.1 °F 91% 29.73 in 1.0 mi ENE 3.5 mph - N/A Snow Light Snow
9:35 AM 31.5 °F 26.8 °F 29.1 °F 91% 29.73 in 1.5 mi East 4.6 mph - N/A Snow Light Snow
9:55 AM 31.5 °F 25.8 °F 28.9 °F 90% 29.72 in 1.2 mi East 5.8 mph - N/A Snow Light Snow
10:15 AM 31.5 °F 26.8 °F 29.1 °F 91% 29.71 in 0.8 mi East 4.6 mph - N/A Snow Light Snow
10:35 AM 31.5 °F 26.8 °F 29.1 °F 91% 29.71 in 1.0 mi ESE 4.6 mph - 0.01 in Snow Light Snow
10:55 AM 31.5 °F 26.8 °F 29.1 °F 91% 29.70 in 1.2 mi ESE 4.6 mph - 0.01 in Snow Light Snow
11:15 AM 33.4 °F 30.4 °F 31.1 °F 91% 29.70 in 1.5 mi ESE 3.5 mph - 0.04 in Snow Light Snow
11:35 AM 33.6 °F 30.6 °F 31.1 °F 90% 29.69 in 1.5 mi ESE 3.5 mph - 0.04 in Snow Light Snow
11:55 AM 32.0 °F - 29.7 °F 91% 29.69 in 1.8 mi Calm Calm - 0.04 in Snow Light Snow
12:15 PM 33.8 °F 30.8 °F 31.5 °F 91% 29.68 in 1.2 mi South 3.5 mph - N/A Snow Light Snow
12:35 PM 33.8 °F 29.6 °F 31.5 °F 91% 29.68 in 1.2 mi SSE 4.6 mph - N/A Snow Light Snow
12:55 PM 33.8 °F 28.6 °F 31.5 °F 91% 29.67 in 1.0 mi South 5.8 mph - 0.01 in Snow Light Snow
1:15 PM 33.8 °F 27.0 °F 31.1 °F 90% 29.66 in 1.0 mi South 8.1 mph - N/A Snow Light Snow
1:35 PM 33.8 °F 28.6 °F 31.1 °F 90% 29.65 in 1.2 mi SSW 5.8 mph - N/A Snow Light Snow
1:55 PM 33.8 °F 26.4 °F 31.5 °F 91% 29.64 in 1.2 mi SSW 9.2 mph - N/A Snow Light Snow
2:15 PM 33.8 °F 25.8 °F 31.1 °F 90% 29.64 in 2.5 mi SSW 10.4 mph - N/A Snow Light Snow
2:35 PM 33.8 °F 26.4 °F 31.1 °F 90% 29.63 in 1.5 mi SSW 9.2 mph - N/A Snow Light Snow
2:55 PM 33.8 °F 24.8 °F 31.6 °F 92% 29.63 in 1.5 mi SW 12.7 mph - N/A Snow Light Snow
3:15 PM 33.8 °F 25.8 °F 31.5 °F 91% 29.63 in 4.0 mi SW 10.4 mph 18.4 mph N/A   Overcast
3:35 PM 33.8 °F 24.8 °F 31.1 °F 90% 29.63 in 5.0 mi SW 12.7 mph - N/A   Overcast
3:55 PM 33.8 °F 24.3 °F 31.1 °F 90% 29.63 in 5.0 mi SW 13.8 mph 19.6 mph N/A   Overcast
4:15 PM 33.8 °F 25.3 °F 31.6 °F 92% 29.63 in 3.0 mi WSW 11.5 mph 18.4 mph N/A   Overcast
4:35 PM 33.8 °F 21.0 °F 31.1 °F 90% 29.65 in 5.0 mi WSW 25.3 mph 35.7 mph N/A   Overcast
4:55 PM 31.5 °F 18.5 °F 27.3 °F 85% 29.66 in 10.0 mi WSW 23.0 mph 33.4 mph N/A   Overcast
5:15 PM 31.5 °F 18.8 °F 27.3 °F 85% 29.67 in 10.0 mi WSW 21.9 mph 31.1 mph N/A   Overcast
5:35 PM 28.9 °F 15.1 °F 24.4 °F 83% 29.68 in 10.0 mi WSW 23.0 mph 29.9 mph N/A   Overcast
5:55 PM 27.1 °F 12.7 °F 21.9 °F 81% 29.69 in 10.0 mi WSW 23.0 mph 34.5 mph N/A   Overcast
6:15 PM 26.4 °F 11.8 °F 21.0 °F 80% 29.70 in 10.0 mi WSW 23.0 mph 34.5 mph N/A   Overcast
6:35 PM 26.2 °F 11.2 °F 20.3 °F 78% 29.71 in 10.0 mi WSW 24.2 mph 32.2 mph N/A   Overcast
6:55 PM 25.0 °F 10.6 °F 19.0 °F 78% 29.73 in 10.0 mi WSW 20.7 mph 27.6 mph N/A   Overcast
7:15 PM 24.8 °F 10.3 °F 18.9 °F 78% 29.74 in 7.0 mi WSW 20.7 mph 31.1 mph N/A Snow Light Snow
7:35 PM 24.1 °F 8.0 °F 17.4 °F 76% 29.75 in 10.0 mi WSW 25.3 mph 33.4 mph N/A Snow Light Snow
7:55 PM 23.0 °F 7.2 °F 15.8 °F 74% 29.76 in 10.0 mi WSW 23.0 mph 34.5 mph N/A   Overcast
8:35 PM 23.7 °F 9.7 °F 17.1 °F 76% 29.78 in 10.0 mi WSW 18.4 mph 27.6 mph N/A Snow Light Snow
8:55 PM 23.5 °F 9.4 °F 16.9 °F 76% 29.79 in 10.0 mi WSW 18.4 mph 29.9 mph N/A Snow Light Snow
9:15 PM 22.3 °F 7.4 °F 15.1 °F 74% 29.80 in 10.0 mi WSW 19.6 mph 27.6 mph N/A   Overcast
9:35 PM 21.9 °F 7.3 °F 14.2 °F 72% 29.80 in 10.0 mi WSW 18.4 mph 31.1 mph N/A   Overcast
9:55 PM 21.2 °F 6.0 °F 14.0 °F 74% 29.81 in 10.0 mi WSW 19.6 mph 28.8 mph N/A   Overcast
10:15 PM 21.2 °F 5.6 °F 14.2 °F 74% 29.81 in 10.0 mi WSW 20.7 mph 31.1 mph N/A   Overcast
10:35 PM 21.2 °F 5.2 °F 13.8 °F 73% 29.81 in 10.0 mi WSW 21.9 mph 27.6 mph N/A   Mostly Cloudy
10:55 PM 21.0 °F 6.6 °F 13.8 °F 74% 29.81 in 10.0 mi WSW 17.3 mph 27.6 mph N/A   Mostly Cloudy
11:35 PM 19.9 °F 4.8 °F 12.6 °F 73% 29.82 in 10.0 mi WSW 18.4 mph 28.8 mph N/A   Overcast
11:55 PM 19.4 °F 3.6 °F 12.0 °F 73% 29.82 in 10.0 mi WSW 19.6 mph 28.8 mph N/A   Overcast